This is the latest recevied weather packets stored in our database for station/object G6UIM-13. If no packets are shown the sender has not sent any weather packets the latest 10 day(s).
| Time | Temp. | Humidity | Pressure | Rain* | Wind** | Luminosity | Snow |
|---|---|---|---|---|---|---|---|
| 1787806315 | 17.78° C | 92% | 1007.3 hPa | 0 mm | - | - | - |
| 1787806050 | 17.78° C | 92% | 1007.3 hPa | 0.76 mm | - | - | - |
| 1787805805 | 17.78° C | 92% | 1007.4 hPa | 1.27 mm | - | - | - |
| 1787805550 | 17.78° C | 92% | 1007.4 hPa | 2.29 mm | - | - | - |
| 1787805270 | 17.78° C | 92% | 1007.3 hPa | 3.05 mm | - | - | - |
| 1787805030 | 17.78° C | 92% | 1007.3 hPa | 3.05 mm | - | - | - |
| 1787804745 | 18.33° C | 92% | 1007.3 hPa | 3.81 mm | - | - | - |
| 1787804470 | 18.33° C | 92% | 1007.3 hPa | 0 mm | - | - | - |
| 1787804195 | 18.33° C | 92% | 1007.3 hPa | 0 mm | - | - | - |
| 1787803930 | 18.33° C | 92% | 1007.3 hPa | 0 mm | - | - | - |
| 1787803685 | 18.33° C | 92% | 1007.3 hPa | 0 mm | - | - | - |
| 1787803390 | 18.33° C | 92% | 1007.1 hPa | 0 mm | - | - | - |
| 1787803130 | 18.89° C | 92% | 1007.2 hPa | 0 mm | - | - | - |
| 1787802850 | 18.33° C | 92% | 1007.2 hPa | 0 mm | - | - | - |
| 1787802574 | 18.89° C | 92% | 1007.1 hPa | 0 mm | - | - | - |
| 1787802315 | 18.89° C | 92% | 1007.1 hPa | 0 mm | - | - | - |
| 1787802055 | 18.89° C | 92% | 1007.1 hPa | 0 mm | - | - | - |
| 1787801790 | 18.89° C | 92% | 1007.2 hPa | 0 mm | - | - | - |
| 1787801505 | 18.89° C | 92% | 1007.3 hPa | 0 mm | - | - | - |
| 1787801225 | 18.89° C | 92% | 1007.2 hPa | 0 mm | - | - | - |
| 1787800940 | 18.89° C | 92% | 1007.2 hPa | 0 mm | - | - | - |
| 1787800660 | 18.89° C | 92% | 1007.1 hPa | 0 mm | - | - | - |
| 1787800397 | 18.89° C | 92% | 1007.2 hPa | 0 mm | - | - | - |
| 1787800130 | 18.89° C | 92% | 1007.2 hPa | 0 mm | - | - | - |
| 1787799875 | 18.89° C | 91% | 1007.1 hPa | 0 mm | - | - | - |
* Rain latest hour (hover to see other rain measurements)
** Current wind speed in m/s (hover to see current wind gust speed)